TimeEST,TemperatureF,Dew PointF,Humidity,Sea Level PressureIn,VisibilityMPH,Wind Direction,Wind SpeedMPH,Gust SpeedMPH,PrecipitationIn,Events,Conditions,WindDirDegrees,DateUTC
12:54 AM,28.0,10.9,49,29.88,10.0,NW,16.1,26.5,N/A,,Clear,310,2014-02-16 05:54:00
1:54 AM,27.0,10.0,49,29.90,10.0,NW,13.8,18.4,N/A,,Clear,310,2014-02-16 06:54:00
2:54 AM,25.0,10.0,53,29.91,10.0,NW,13.8,23.0,N/A,,Clear,320,2014-02-16 07:54:00
3:54 AM,24.1,10.0,55,29.95,10.0,NW,12.7,23.0,N/A,,Clear,310,2014-02-16 08:54:00
4:54 AM,23.0,10.0,58,29.97,10.0,WNW,13.8,21.9,N/A,,Clear,300,2014-02-16 09:54:00
5:54 AM,21.9,9.0,58,29.98,10.0,NW,11.5,23.0,N/A,,Clear,320,2014-02-16 10:54:00
6:54 AM,21.9,8.1,55,29.99,10.0,NW,6.9,-,N/A,,Clear,320,2014-02-16 11:54:00
7:54 AM,21.9,8.1,55,30.01,10.0,NW,12.7,-,N/A,,Clear,310,2014-02-16 12:54:00
8:54 AM,21.9,8.1,55,30.04,10.0,WNW,12.7,-,N/A,,Clear,300,2014-02-16 13:54:00
9:54 AM,23.0,8.1,53,30.04,10.0,West,16.1,-,N/A,,Clear,280,2014-02-16 14:54:00
10:54 AM,25.0,8.1,49,30.04,10.0,West,10.4,-,N/A,,Clear,270,2014-02-16 15:54:00
11:54 AM,27.0,9.0,47,30.04,10.0,WNW,11.5,-,N/A,,Partly Cloudy,290,2014-02-16 16:54:00
12:54 PM,28.0,9.0,45,30.02,10.0,WNW,16.1,-,N/A,,Clear,290,2014-02-16 17:54:00
1:54 PM,28.0,10.9,49,30.02,10.0,West,11.5,-,N/A,,Partly Cloudy,260,2014-02-16 18:54:00
2:54 PM,28.0,10.0,47,30.01,10.0,West,8.1,-,N/A,,Scattered Clouds,280,2014-02-16 19:54:00
3:54 PM,28.9,9.0,43,30.00,10.0,WNW,11.5,19.6,N/A,,Overcast,290,2014-02-16 20:54:00
4:54 PM,28.0,10.0,47,30.02,10.0,West,10.4,-,N/A,,Scattered Clouds,280,2014-02-16 21:54:00
5:54 PM,28.9,10.9,47,30.04,10.0,West,9.2,-,N/A,,Overcast,280,2014-02-16 22:54:00
6:54 PM,28.9,12.0,49,30.07,10.0,WNW,13.8,-,N/A,,Overcast,300,2014-02-16 23:54:00
7:54 PM,28.0,12.9,53,30.09,10.0,WNW,9.2,-,N/A,,Clear,300,2014-02-17 00:54:00
8:54 PM,27.0,14.0,58,30.11,10.0,WNW,8.1,-,N/A,,Clear,290,2014-02-17 01:54:00
9:54 PM,26.1,14.0,60,30.13,10.0,NW,6.9,-,N/A,,Partly Cloudy,310,2014-02-17 02:54:00
10:54 PM,25.0,14.0,63,30.16,10.0,NW,6.9,-,N/A,,Partly Cloudy,320,2014-02-17 03:54:00
11:54 PM,24.1,14.0,65,30.18,10.0,NW,8.1,-,N/A,,Clear,320,2014-02-17 04:54:00